PSLV R/B

Satellite information

Favourite Embed

Satellite Type and Status

ROCKET BODYIN ORBIT

Key statistics

Satellite PSLV R/B at a glance.

Uptime

2549

Days in orbit

Revolutions

≈ 15.0

Per day

Orbit

SSO

Sun Synchronous Orbit

Inclination

97.4

Latest

Satellite identification and parameters

Extended collection of information and parameters for PSLV R/B.

Object identification

Identified? True

Debris? False

Object name: PSLV R/B

International designator: 2018-071C

Object number (NORAD): 43620

Object ID (CCSDS): 43620

Country: INDIA (IND)

Current information (Y/N): Y

RCS size: LARGE

Orbital parameters

Period: 96.077 minutes

Inclination: 97.4401 deg

SMA: 6948.743 km

Apoapsis: 589.445 km

Periapsis: 551.772 km

RAAN: 74.5701 deg

Eccentricy: 0.00271075

Argument of periapsis: 5.1621 deg

Mean anomaly: 354.9877 deg

Mean motion: 14.98798864 rev/day

Mean motion (dot): 0.0000239 rev/day2

B* drag term: 0.00020153225 1/REarth

Two-line elements (TLE)

Creation date: Sept. 8, 2025, 3:16 a.m.

Reference frame: TEME

Reference center: EARTH

Epoch: Sept. 7, 2025, 6:17 p.m. UTC

TLE line 0: 0 PSLV R/B

TLE line 1: 1 43620U 18071C 25250.76229541 .00002390 00000-0 20153-3 0 9990

TLE line 2: 2 43620 97.4401 74.5701 0027107 5.1621 354.9877 14.98798864380095

Live tracking on map

Real-time ground track for satellite PSLV R/B.

In-orbit conjunctions

A list of the most updated potential collisions computed for object PSLV R/B.

Target Orbit TCA Probability of collision Miss distance Type
CZ-2C DEB SSO 2025-03-29 08:42:51 0.000103297 797.0 (m) DEBRIS
CZ-6A DEB SSO 2025-02-26 23:52:22 0.0004304469 316.0 (m) DEBRIS
SL-14 R/B LEO 2024-07-26 16:04:37 0.000274677 312.0 (m) ROCKET BODY
UNKNOWN LEO 2024-07-12 22:03:59 0.0003107838 637.0 (m) UNKNOWN

Associated space launch

The NovaSAR-S spacecraft carries a radar imaging instrument, and the mission was developed in partnership between the British government and the British satellite manufacturer SSTL. The SSTL-S1 satellite, also built by SSTL, is a high-resolution optical Earth observation satellite identical to three DMC3/TripleSat reconnaissance craft launched in 2015. Beijing-based 21AT will lease imaging capacity on the SSTL-S1 satellite. There are also several secondary payloads.

PSLV R/B was lifted into orbit during the mission ‘PSLV-CA | SSTL-S1 & NovaSAR-S’, on board a PSLV space rocket.

The launch took place on Sept. 16, 2018, 4:38 p.m. from Satish Dhawan Space Centre First Launch Pad.

For more information about the launch, click the button.

Launch to space PSLV-CA | SSTL-S1 & NovaSAR-S
PSLV-CA | SSTL-S1 & NovaSAR-S

Agency: N/A

Status: Launch Successful

Launch date: Sept. 16, 2018, 4:38 p.m. UTC

Rocket: PSLV

Launch pad: Satish Dhawan Space Centre First Launch Pad

Location: Satish Dhawan Space Centre, India

...

Latest news about this satellite

There are no fresh news available about this satellite. Check back as we update our databases every day.


Newsletter sign-up

Weekly statistics, charts and insights to help you stay on top of the space industry.